Location: Bremen
(53.0796°N, 8.8241°E)
Time: 18:32:45
(UTC+01:00)

ISS - Pass Details

Date: 07 January 2018
Orbit: 402 x 407 km, 51.6° (Epoch: 19 January)

Event Time Altitude Azimuth Distance (km) Brightness Sun altitude
Exits shadow 05:56:20 47° 113° (ESE) 548 -2.9 -22.8°
Drops below altitude 10° 05:58:51 10° 95° (E) 1,470 0.1 -22.4°
Sets 06:00:56 0° 93° (E) 2,332 1.5 -22.1°
